Regional Weather Roundup
Issued by NWS Green Bay, WI

Home | Current Version | Previous Version | Graphics & Text | Print | Product List | Glossary Off
Versions: 1 2 3 4 5 6 7 8 9 10 11 12 13 14 15 16 17 18 19 20 21 22 23 24 25 26 27 28 29 30 31 32 33 34 35 36 37 38 39 40 41 42 43 44 45 46 47 48 49 50

000
ASUS43 KGRB 130159
RWRGRB

NORTH-CENTRAL AND NORTHEAST WISCONSIN REGIONAL WEATHER ROUNDUP
NATIONAL WEATHER SERVICE GREEN BAY WI
900 PM CDT SAT JUL 12 2014

WIZ005-009-010>012-018-019-130300-
NORTH CENTRAL WISCONSIN

CITY           SKY/WX    TMP DP  RH WIND       PRES   REMARKS
IRONWOOD       MOCLDY    63  57  82 W3        29.84F
MANITOWISH WTR NOT AVBL
ARBOR VITAE    NOT AVBL
EAGLE RIVER    NOT AVBL
LAND O LAKES   NOT AVBL
RHINELANDER    CLOUDY    63  62  97 SW7       29.90F
PHILLIPS       CLOUDY    64  63  97 SW7       29.89F
ANTIGO         NOT AVBL
TOMAHAWK       NOT AVBL
MERRILL        NOT AVBL
$$

WIZ013-073-130300-
NORTHEAST WISCONSIN

CITY           SKY/WX    TMP DP  RH WIND       PRES   REMARKS
IRON MOUNTAIN  LGT RAIN  66  61  84 W6        29.84F
MARINETTE      CLOUDY    64  61  88 CALM      29.85F
$$

WIZ017-030-035>037-045-130300-
CENTRAL WISCONSIN

CITY           SKY/WX    TMP DP  RH WIND       PRES   REMARKS
MEDFORD        NOT AVBL
WAUSAU         LGT RAIN  65  64  97 W3        29.88F
MOSINEE        DRIZZLE   64  64 100 CALM      29.90F
MARSHFIELD     CLOUDY    65  64  97 NW7       29.90F
WISC RAPIDS    LGT RAIN  66  64  93 CALM      29.89F
STEVENS POINT  NOT AVBL
WAUPACA        CLOUDY    69  65  88 CALM      29.88F
SHAWANO        DRIZZLE   67  62  84 NW6       29.87F
CLINTONVILLE   CLOUDY    66  61  82 CALM      29.87F
$$

WIZ038-039-048-051-130300-
FOX VALLEY

CITY           SKY/WX    TMP DP  RH WIND       PRES   REMARKS
NWS GREEN BAY  LGT RAIN  68  61  78 N10       29.86F
APPLETON       CLOUDY    70  59  68 N14       29.88F
OSHKOSH        CLOUDY    68  65  90 N10       29.87S
FOND DU LAC    RAIN      71  67  87 NW13      29.87R FOG
$$

WIZ022-050-052-130300-
EAST CENTRAL WISCONSIN

CITY           SKY/WX    TMP DP  RH WIND       PRES   REMARKS
STURGEON BAY   CLOUDY    66  61  82 NW12      29.86F
MANITOWOC      NOT AVBL
SHEBOYGAN      LGT RAIN  72  70  93 VRB5      29.85F FOG
$$

LMZ563-521-522-541>543-130300-
LAKESHORE

STATION/POSITION TIME  TEMP    WIND        PRES    VSBY  WAVE
                       AIR SEA DIR/SP/G                  HT/PER
                 (UTC) (F)     (DEG/KT/KT) (MB)    (MI)  (FT/S)
SHEBOYGAN LKSHOR 0100   70     180/  6/  7 1011.5F
KEWAUNEE LKSHORE 0100   58     310/  3/  4 1011.5F
NORTHPORT PIER   0100   67     330/  9/ 13 1010.5F
N MID LAKE BUOY  0100   57 57  210/ 10/ 14 1010.7F         2/ 3
SISTER BAY LKSHO 0100   68     170/  7/  8   N/A
MENOMINEE LKSHOR 0100   67     270/  9/ 15 1012.2R
$$



USA.gov is the U.S. government's official web portal to all federal, state and local government web resources and services.